Tracking 18673 objects as of 28-June-2017
HD Live streaming from Space Station
objects crossing your sky now

GLOBALSTAR M006

Track GLOBALSTAR M006 now!
10-day predictions
GLOBALSTAR M006 is classified as:


NORAD ID: 25307
Int'l Code: 1998-023B
Perigee: 1,878.0 km
Apogee: 1,884.1 km
Inclination: 52.0 °
Period: 124.3 minutes
Semi major axis: 8252 km
RCS: 2.7065 m2 (large)
Launch date: April 24, 1998
Source: Globalstar (GLOB)
Launch site: AIR FORCE EASTERN TEST RANGE (AFETR)
Your satellite tracking list
Your tracking list is empty





NASA's NSSDC Master Catalog

Two Line Element Set (TLE):
1 25307U 98023B   17177.86289215 -.00000046 +00000-0 +61201-3 0  9997
2 25307 051.9940 270.0619 0003686 241.4621 261.7401 11.58135739879508
Source of the keplerian elements: AFSPC